COMSATBW-2

Last updated on Tue Sep 22 2026 00:03:11 GMT+0000 (Coordinated Universal Time)

1 36582U 10021B 26264.27786308 .00000084 00000+0 00000+0 0 9999 2 36582 0.0087 151.7269 0002641 39.8111 281.9122 1.00269341 59924
UTC large
Height (km)
Speed (km/s)
/
Latitude / Longitude
Inclination (degrees)
Orbital Period (minutes)
Azimuth
Elevation
Range (km)
Doppler Factor

Next 0 passes for location: London (51.5072 / 0.1276)

No passes found over London.
COMSATBW-2